星链-3846 (STARLINK-3846 )

导读 | 豆包AI

STARLINK-3846是美国太空探索技术公司(SpaceX)星链(Starlink)互联网卫星星座的一员,于UTC时间2022年5月13日22:00(北京时间2022年5月14日08:00)发射入轨,旨在为全球提供高速低延迟卫星互联网服务,星链星座持续扩容,该卫星是星链批量部署中的一员。

基本信息
目录编号:
52647
目录名称:
STARLINK-3846
国际标识:
2022-052BB
轨道中心:
EARTH
卫星名称:
星链-3846
卫星全名:
星链-3846 (STARLINK-3846 )
卫星状态:
已陨落 最后检测时间 2025-11-14
发射日期:
2022-05-14 UTC
国别 :
美国 (US)
星等 :
--
轨道信息
数据来源 国际轨道数据
星历时间: 2025-11-14T14:21:30+0800
轨道信息已过期167天
半长轴: 6552.151km
偏心率: 0.0002232
轨道倾角: 53.204°
近地点辐角 309.614°
升交点赤经 36.639°
平近点角 50.471°
近地点: 172.553km
远地点: 175.479km
周期: 87.970分钟
每日圈数: 16.36918
详细信息
固有亮度:
5
最大亮度:
2.5
卫星平台:
Starlink v1.5
覆盖范围:
全球
运营商:
太空探索技术公司
运营商所在国:
美国
制造商(研发单位):
太空探索技术公司
制造商所在国:
美国
使用方式:
暂无
卫星简介
星链(Starlink)计划是由太空探索技术公司(SpaceX)提出的一个巨型低轨卫星互联网星座项目,计划在2019年至2024年间在太空搭建由约1.2万颗卫星组成的“星链”网络,其中1584颗将部署在地球上空550千米处的近地轨道,并从2020年开始工作。该卫星仍在工作。